Погода в Павловске

Россия / Санкт-Петербург и Ленинградская область     59°41′11″N   30°25′53″E
темп.,
°C
ветер,
м/с
пор.,
м/с
влажн.,
%
обл.,
%
осадки,
мм/ч
давл.,
гПа
погр.,
м
3 марта, ср
ср300:00−1зсз512880 0.0 1018404
03:00−1зсз512900 0.0 1018435
06:00−2з5119424 0.0 1016367
09:00−2з5129142 0.0 1015496
12:00+1з6118350 0.0 1013672
15:00+2з6127375 0.0 10101059
18:00+1з71397100 0.6 1006792
21:00+1зсз61397100 1.6 1003693
4 марта, чт
чт400:000сз51188100 2.1 1002902
03:00−3зсз5128163 2.1 1003549
06:00−4зсз410860 0.0 1003430
09:00−4зсз38890 0.0 1003346
12:00−3сз358329 0.0 1003468
15:00−3сз578858 0.1 1004620
18:00−4сз598399 0.3 1004783
21:00−5сз498398 0.3 1005735
5 марта, пт
пт500:00−6сз388841 0.0 1006496
03:00−7сз488959 0.0 1007536
06:00−8сз4789100 0.1 1008539
09:00−9сз478696 0.1 1009475
12:00−7сз458297 0.1 1011616
15:00−6ссз3580100 0.3 1013728
18:00−6сз257588 0.0 1014173
21:00−7сз278592 0.1 1016519
6 марта, сб
сб600:00−8зсз369195 0.1 1017274
03:00−9зсз369583 0.1 1017174
06:00−9зсз379515 0.0 1017230
09:00−8з38897 0.0 1016303
12:00−4зюз587024 0.0 1014917
15:00−3юз6117062 0.0 10101027
18:00−4юз81690100 0.7 10031242
21:00−2зюз91794100 2.1 9971256
7 марта, вс
вс700:00−1зюз91794100 2.2 9921148
03:00−3зсз81392100 4.8 991976
06:00−10з4116563 0.3 991403
09:00−8юз489481 1.6 990610
12:00−7зсз7136581 1.1 9891846
15:00−6зсз7139090 1.8 9891223
18:00−8ссв81182100 1.0 993975
21:00−10сз5118997 1.1 999506